Visibility
15.0 15.0 15.0 15.0 15.0 15.0 8.9 14.6 1.3 0.2 14.2 8.6 15.0 15.0 15.0 15.0 15.0 15.0 15.0 15.0 15.0 15.0 14.4 15.0 4.2 2.9 13.5 15.0 15.0 14.4 15.0 15.0 3.7 13.4 15.0 15.0 4.1 1.9
15.0 15.0 15.0 15.0 15.0 15.0 15.0 15.0 14.8 12.6 6.9 15.0 15.0 15.0 15.0 15.0 15.0 15.0 15.0 15.0 12.2 8.7 15.0 12.6 15.0 10.5 15.0 14.3 15.0 7.4 15.0 7.4 3.9 6.8 15.0 15.0 15.0 4.9
15.0 15.0 15.0 15.0 15.0 15.0 15.0 15.0 15.0 15.0 15.0 15.0 15.0 15.0 15.0 15.0 15.0 15.0 15.0 15.0 13.6 9.0 14.8 15.0 14.3 15.0 15.0 11.7 11.1 7.7 8.0 7.8 11.7 15.0 15.0 15.0 15.0 12.5
15.0 15.0 15.0 15.0 15.0 15.0 15.0 15.0 15.0 15.0 15.0 15.0 15.0 15.0 15.0 15.0 15.0 15.0 8.0 6.0 0.9 2.8 10.5 14.3 15.0 14.9 15.0 5.3 13.4 11.2 9.1 9.3 15.0 14.9 15.0 15.0 15.0 15.0
15.0 15.0 15.0 15.0 15.0 15.0 15.0 15.0 14.4 15.0 15.0 15.0 15.0 15.0 15.0 15.0 9.5 15.0 15.0 11.3 12.2 0.3 0.3 2.1 2.4 5.6 13.2 15.0 6.1 13.5 14.0 15.0 15.0 15.0 15.0 8.0 13.8 15.0
15.0 15.0 15.0 15.0 15.0 15.0 15.0 15.0 15.0 14.3 8.6 14.6 15.0 15.0 15.0 15.0 15.0 15.0 15.0 9.5 8.9 15.0 8.4 2.6 3.7 1.8 3.1 2.4 10.2 9.5 8.3 12.8 15.0 15.0 12.0 6.7 10.2 14.3
15.0 15.0 15.0 15.0 15.0 15.0 15.0 15.0 15.0 15.0 15.0 15.0 15.0 15.0 15.0 15.0 15.0 15.0 15.0 14.0 6.1 5.9 4.0 9.6 4.0 6.7 13.8 14.4 14.5 15.0 15.0 15.0 12.6 9.4 7.6 8.7 7.6 5.3
15.0 15.0 15.0 15.0 15.0 15.0 15.0 15.0 15.0 15.0 15.0 15.0 15.0 15.0 15.0 15.0 15.0 15.0 15.0 15.0 0.1 15.0 6.9 15.0 1.6 10.6 15.0 15.0 14.7 9.5 15.0 15.0 15.0 14.9 6.3 5.1 4.4 3.2
15.0 15.0 15.0 15.0 15.0 15.0 15.0 15.0 15.0 15.0 15.0 15.0 15.0 15.0 15.0 15.0 15.0 15.0 15.0 15.0 15.0 15.0 15.0 15.0 5.3 1.2 15.0 0.4 1.8 11.6 15.0 14.5 3.3 10.2 3.6 3.6 3.4 3.8
15.0 15.0 15.0 15.0 15.0 15.0 15.0 15.0 15.0 15.0 15.0 15.0 15.0 15.0 15.0 15.0 15.0 15.0 15.0 15.0 15.0 15.0 15.0 0.1 10.3 0.9 15.0 11.3 15.0 2.2 4.9 15.0 13.6 11.7 4.2 5.0 5.5 5.6
15.0 15.0 15.0 15.0 15.0 15.0 15.0 15.0 15.0 15.0 15.0 15.0 15.0 15.0 15.0 15.0 15.0 15.0 15.0 15.0 15.0 15.0 15.0 15.0 1.0 0.1 0.1 0.1 0.8 3.4 3.2 10.4 8.8 5.3 5.7 7.1 14.8 15.0
15.0 15.0 15.0 15.0 15.0 15.0 15.0 15.0 15.0 15.0 15.0 15.0 15.0 15.0 15.0 15.0 15.0 15.0 15.0 0.2 3.8 13.7 15.0 1.3 0.1 0.1 0.1 15.0 1.5 0.2 0.2 6.8 14.4 8.6 9.9 13.0 15.0 15.0
15.0 15.0 15.0 15.0 15.0 15.0 15.0 11.2 15.0 15.0 15.0 15.0 15.0 15.0 15.0 15.0 15.0 15.0 15.0 15.0 15.0 7.9 15.0 14.4 1.8 5.8 0.1 0.3 6.3 2.1 0.2 1.1 0.6 12.4 7.0 8.2 14.6 15.0
15.0 15.0 15.0 15.0 15.0 10.7 15.0 10.5 3.4 15.0 15.0 15.0 15.0 15.0 15.0 15.0 15.0 15.0 15.0 15.0 15.0 15.0 15.0 15.0 1.0 6.8 2.3 0.1 0.1 9.6 0.2 1.7 10.2 2.7 9.6 7.2 12.6 15.0
15.0 15.0 15.0 15.0 15.0 15.0 15.0 15.0 15.0 15.0 15.0 15.0 15.0 15.0 15.0 15.0 15.0 15.0 15.0 15.0 15.0 15.0 15.0 15.0 15.0 15.0 15.0 13.7 0.1 2.3 0.1 0.1 6.5 6.3 7.8 7.7 11.7 14.7
15.0 13.6 9.0 14.5 15.0 15.0 15.0 15.0 15.0 15.0 15.0 15.0 15.0 15.0 15.0 11.5 15.0 15.0 15.0 15.0 14.9 15.0 15.0 15.0 15.0 7.7 11.1 15.0 13.7 0.1 15.0 0.1 0.1 0.6 13.9 14.2 10.5 14.1
7.2 15.0 9.7 15.0 15.0 15.0 15.0 15.0 15.0 15.0 15.0 15.0 15.0 15.0 15.0 15.0 14.4 15.0 15.0 15.0 2.7 1.1 12.1 15.0 15.0 15.0 10.3 0.1 0.3 0.2 0.3 13.8 0.4 2.4 0.5 0.2 4.2 13.1
12.8 2.9 13.3 9.2 3.1 0.3 0.8 2.4 4.8 15.0 15.0 15.0 15.0 11.7 15.0 15.0 4.7 15.0 13.2 15.0 13.9 15.0 15.0 15.0 15.0 2.8 0.0 0.1 0.1 0.0 4.5 15.0 13.8 5.5 11.3 0.3 0.2 2.2
15.0 15.0 15.0 15.0 15.0 15.0 15.0 15.0 15.0 15.0 15.0 15.0 5.5 15.0 15.0 10.0 12.9 15.0 15.0 15.0 4.8 4.8 13.4 15.0 0.3 0.1 0.0 0.1 9.1 15.0 0.1 1.7 1.1 0.1 1.7 14.9 13.9 2.0
15.0 15.0 15.0 15.0 15.0 15.0 15.0 15.0 15.0 15.0 15.0 15.0 11.4 12.1 3.0 5.0 5.5 6.2 12.5 3.5 2.8 1.9 4.9 12.8 0.4 0.1 0.0 0.3 11.8 14.3 15.0 1.0 9.7 0.1 0.1 0.1 0.4 10.8
15.0 15.0 15.0 15.0 15.0 15.0 15.0 15.0 15.0 15.0 15.0 1.7 0.6 4.6 15.0 15.0 4.9 1.3 3.7 7.8 3.7 7.5 1.5 15.0 15.0 7.3 0.0 0.0 0.0 0.1 0.2 0.5 15.0 7.6 0.0 0.0 0.1 0.0
15.0 15.0 15.0 15.0 15.0 15.0 15.0 15.0 4.7 14.6 12.9 15.0 15.0 15.0 15.0 11.1 0.6 0.3 1.6 0.4 0.9 3.1 3.5 15.0 4.1 0.0 0.0 0.0 0.1 2.6 0.1 0.0 4.2 11.9 11.2 12.2 1.1 0.1
15.0 14.8 14.9 15.0 14.8 3.7 1.1 1.4 2.0 4.7 9.9 5.7 4.7 8.3 12.3 0.3 2.6 5.2 3.7 0.4 0.2 0.2 0.2 0.2 0.2 0.5 0.0 0.1 0.1 0.1 0.4 0.0 0.0 0.0 0.0 0.0 0.2 14.9